Home   Weather   Kitzbühel   Past weeks

Flag for Austria Past Weather in Kitzbühel, Tyrol, Austria — Yesterday and Last 2 Weeks

Now
50 °F

Cool.


Feels Like: 50 °F
Forecast: 45 / 66 °F
Wind: 2 mph from Southwest

Location: Kufstein

Current Time: Sep 25, 2016 at 5:48:39 AM

Latest Report: Sep 25, 2016 at 5:00 AM


Visibility: N/A

Pressure: 30.23 "Hg (27.62 "Hg at 750m altitude)

Humidity: 93%

Dew Point: 48 °F

Location of KitzbühelLocation

Past Weather in Kitzbühel — Graph

°F

Kitzbühel Temperature Yesterday

Maximum temperature yesterday: 69 °F (at 4:00 PM)
Minimum temperature yesterday: 48 °F (at 8:00 AM)
Average temperature yesterday: 58 °F

High & Low Weather Summary for the Past Weeks

 TemperatureHumidityPressure
High83 °F (Sep 15, 2:00 PM)98% (Sep 24, 7:00 AM)30.38 "Hg (Sep 24, 7:00 AM)
Low44 °F (Sep 23, 7:00 AM)33% (Sep 15, 3:00 PM)29.78 "Hg (Sep 15, 2:00 PM)
Average61 °F79%30.04 "Hg
* Reported Sep 10 4:00 AM — Sep 25 4:00 AM, Kitzbühel, Weather by CustomWeather, © 2016

Note: Actual official high and low records may vary slightly from our data, if they occured in-between our weather recording intervals... More about our weather records

Advertising

Kitzbühel Weather History for the Previous 24 Hours

Scroll right to see more
 ConditionsComfort  
Time TempWeatherWind HumidityBarometerVisibility
4:00 AM
Sun, Sep 25
50 °FCool.1 mph94%30.24 "HgN/A
3:00 AM50 °FCool.2 mph94%30.24 "HgN/A
2:00 AM51 °FCool.1 mph94%30.24 "HgN/A
1:00 AM51 °FCool.No wind95%30.25 "HgN/A
12:00 AM52 °FCool.1 mph93%30.25 "HgN/A
11:00 PM
Sat, Sep 24
53 °FCool.No wind92%30.25 "HgN/A
10:00 PM55 °FCool.1 mph89%30.23 "HgN/A
9:00 PM58 °FCool.1 mph82%30.22 "HgN/A
8:00 PM61 °FCool.2 mph76%30.21 "HgN/A
7:00 PM64 °FMild.2 mph67%30.20 "HgN/A
6:00 PM67 °FMild.2 mph62%30.19 "HgN/A
5:00 PM69 °FMild.2 mph59%30.18 "HgN/A
4:00 PM69 °FMild.3 mph58%30.18 "HgN/A
3:00 PM69 °FMild.2 mph61%30.20 "HgN/A
2:00 PM67 °FMild.2 mph60%30.24 "HgN/A
1:00 PM65 °FMild.1 mph62%30.27 "HgN/A
12:00 PM63 °FMild.1 mph72%30.30 "HgN/A
11:00 AM60 °FCool.1 mph74%30.32 "HgN/A
10:00 AM54 °FCool.1 mph86%30.35 "HgN/A
9:00 AM50 °FCool.1 mph95%30.38 "HgN/A
8:00 AM48 °FCool.No wind97%30.37 "HgN/A
7:00 AM49 °FCool.1 mph98%30.35 "HgN/A
6:00 AM49 °FCool.1 mph97%30.36 "HgN/A
Weather by CustomWeather, © 2016

See weather overviewHow to use our weather pages